N4NW Stafford County VA US current weather conditions

sailwx.info

Wind from 126 at 0 knots gusting 4

Air temperature 3.3° C
Dewpoint -5.6° C

Last reported at 2019-Dec-12 18:02 UTC.
Time now 2019-Dec-12 18:51 UTC

Location: N 38°28' W 077°28'.
View on Google Maps.

See reports from other nearby stations

  
Tides and Currents Weather Stations Pressure Air Temp Water Temp Dewpoint Dewpoint Depression Visibility Wind Speed Wind Dir Waves Ship Positions
date/time (UTC)wind fromknots sea level pressurealtimeterstation pressurevisibilityair tempwater tempwave heightnotes
2019-Dec-12 18:02 126 0 gusting 4 3.3
2019-Dec-12 17:45 170 1 gusting 5 3.3
2019-Dec-12 17:32 146 1 gusting 4 2.2
2019-Dec-12 17:15 080 0 gusting 5 2.2
2019-Dec-12 17:02 109 2 gusting 6 1.7
2019-Dec-12 16:47 074 0 gusting 6 1.7
2019-Dec-12 16:18 055 2 gusting 4 1.1
2019-Dec-12 16:00 146 0 gusting 4 0.6
2019-Dec-12 15:46 171 0 gusting 4 0.6
2019-Dec-12 15:30 193 0 gusting 6 -0.0
2019-Dec-12 15:16 126 0 gusting 5 -0.0
2019-Dec-12 15:01 111 -0.6
2019-Dec-12 14:32 119 1 gusting 5 -1.1
2019-Dec-12 14:15 127 0 gusting 4 -1.1
2019-Dec-12 14:02 051 1 gusting 4 -2.2
2019-Dec-12 13:45 038 0 gusting 3 -2.8
2019-Dec-12 13:31 051 0 gusting 6 -3.9
2019-Dec-12 13:15 038 -4.4
2019-Dec-12 13:04 031 -4.4
2019-Dec-12 12:46 026 -5.0
2019-Dec-12 12:16 025 -5.0
2019-Dec-12 12:00 025 -4.4
2019-Dec-12 11:46 025 -4.4
2019-Dec-12 11:30 025 -4.4
2019-Dec-12 11:17 025 -4.4
2019-Dec-12 11:01 025 -3.9
2019-Dec-12 10:47 025 -3.9
2019-Dec-12 10:30 025 -3.9
2019-Dec-12 10:00 025 -3.3
2019-Dec-12 09:45 025 -2.8
2019-Dec-12 09:31 331 -2.8
2019-Dec-12 09:15 329 -2.8
2019-Dec-12 09:00 330 0 gusting 4 -2.2
2019-Dec-12 08:47 005 -2.8
2019-Dec-12 08:30 338 -2.8
2019-Dec-12 08:18 342 0 gusting 2 -2.2
2019-Dec-12 08:00 076 0 gusting 3 -2.2
2019-Dec-12 07:47 058 -1.7
2019-Dec-12 07:31 085 2 gusting 6 -1.7
2019-Dec-12 07:01 320 -1.7
2019-Dec-12 06:47 109 0 gusting 6 -1.7
2019-Dec-12 06:31 329 1 gusting 3 -1.7
2019-Dec-12 06:01 355 1 gusting 12 -1.1
2019-Dec-12 06:00 355 1 gusting 12 -1.1
2019-Dec-12 05:31 332 2 gusting 9 -1.1
2019-Dec-12 05:15 017 -1.1
2019-Dec-12 05:02 324 0 gusting 5 -2.2
2019-Dec-12 04:46 316 2 gusting 7 -2.2
2019-Dec-12 04:16 018 0 gusting 7 -1.7
2019-Dec-12 04:02 310 2 gusting 7 -1.7
2019-Dec-12 03:46 061 1 gusting 7 -1.1
2019-Dec-12 03:31 360 1 gusting 9 -1.7
2019-Dec-12 03:15 325 1 gusting 12 -1.7
2019-Dec-12 03:00 333 2 gusting 7 -1.1
2019-Dec-12 02:30 037 3 gusting 13 -2.2
2019-Dec-12 02:01 005 -2.2
2019-Dec-12 01:46 360 -2.2
2019-Dec-12 01:16 275 -1.7
2019-Dec-12 01:01 275 -1.7
2019-Dec-12 00:31 274 -1.7
2019-Dec-12 00:02 274 -1.1
2019-Dec-12 00:00 274 -1.1
2019-Dec-11 23:31 274 -0.6
2019-Dec-11 23:15 274 -0.6
2019-Dec-11 23:01 274 -0.0
2019-Dec-11 22:45 274 0.6
2019-Dec-11 22:31 274 1.1
2019-Dec-11 22:16 274 1.7
2019-Dec-11 22:01 274 2.8
2019-Dec-11 22:00 274 2.8
2019-Dec-11 21:46 274 3.3
2019-Dec-11 21:32 281 0 gusting 3 4.4
2019-Dec-11 21:16 283 2 gusting 10 5.0
2019-Dec-11 21:00 309 0 gusting 8 6.1
2019-Dec-11 20:48 271 3 gusting 10 6.1
2019-Dec-11 20:31 227 3 gusting 6 5.6
2019-Dec-11 20:01 289 3 gusting 9 5.0
2019-Dec-11 19:31 273 1 gusting 8 5.0
2019-Dec-11 19:02 258 6 gusting 11 5.6
2019-Dec-11 18:45 319 3 gusting 9 5.6
2019-Dec-11 18:16 286 3 gusting 8 5.0
2019-Dec-11 18:00 317 2 gusting 11 5.0
2019-Dec-11 17:47 321 2 gusting 10 4.4
2019-Dec-11 17:15 252 6 gusting 11 3.3
2019-Dec-11 17:01 235 1 gusting 9 3.3
2019-Dec-11 16:45 266 3 gusting 7 2.8
2019-Dec-11 16:31 014 1 gusting 7 2.8
2019-Dec-11 16:19 313 4 gusting 14 2.8
2019-Dec-11 16:01 317 1 gusting 9 2.2
2019-Dec-11 15:31 253 5 gusting 11 1.7
2019-Dec-11 15:02 030 2 gusting 9 0.6
2019-Dec-11 14:47 280 1 gusting 8 0.6
2019-Dec-11 14:16 306 1 gusting 6 -0.6
2019-Dec-11 14:00 355 0 gusting 5 -0.6
2019-Dec-11 13:46 317 0 gusting 3 -0.6
2019-Dec-11 13:30 313 0 gusting 2 -0.6
2019-Dec-11 13:17 313 -0.6
2019-Dec-11 13:01 313 0 gusting 3 -0.6
2019-Dec-11 12:45 301 1 gusting 4 -0.6
2019-Dec-11 12:31 309 0 gusting 4 -0.6
2019-Dec-11 12:15 307 0 gusting 3 -0.6
2019-Dec-11 12:03 306 0 gusting 4 -0.6
2019-Dec-11 11:45 306 2 gusting 5 -0.6
2019-Dec-11 11:17 305 1 gusting 7 -0.6
2019-Dec-11 11:00 344 1 gusting 7 -0.6
2019-Dec-11 10:31 284 2 gusting 9 -0.6
2019-Dec-11 10:02 328 1 gusting 7 -0.6
2019-Dec-11 10:00 329 2 gusting 7 -0.0
2019-Dec-11 09:45 332 1 gusting 7 -0.6
2019-Dec-11 09:31 360 1 gusting 5 -0.6
2019-Dec-11 09:15 344 2 gusting 7 -0.6
2019-Dec-11 09:00 005 0 gusting 5 -0.0
2019-Dec-11 08:48 019 1 gusting 8 -0.0
2019-Dec-11 08:30 340 1 gusting 9 -0.0
2019-Dec-11 08:17 355 0 gusting 12 -0.0
2019-Dec-11 08:01 355 1 gusting 12 -0.0
2019-Dec-11 07:47 355 3 gusting 8 0.6
2019-Dec-11 07:31 302 1 gusting 7 0.6
2019-Dec-11 07:15 042 2 gusting 6 0.6
2019-Dec-11 07:00 292 3 gusting 8 0.6
2019-Dec-11 06:49 330 2 gusting 7 1.1
2019-Dec-11 06:31 338 3 gusting 12 1.1
2019-Dec-11 06:15 320 2 gusting 12 1.1
2019-Dec-11 06:02 312 1 gusting 14 1.1
2019-Dec-11 05:47 038 3 gusting 13 1.7
2019-Dec-11 05:33 005 3 gusting 10 2.2
2019-Dec-11 05:16 313 4 gusting 11 2.8
2019-Dec-11 05:03 323 4 gusting 13 3.3
2019-Dec-11 04:46 325 2 gusting 11 3.9
2019-Dec-11 04:34 288 2 gusting 11 3.9
2019-Dec-11 04:16 014 2 gusting 6 4.4
2019-Dec-11 04:04 339 3 gusting 12 5.0
2019-Dec-11 03:59 225 5 gusting 14 12.2
2019-Dec-11 03:46 012 2 gusting 11 5.6
2019-Dec-11 03:31 311 2 gusting 9 5.6
2019-Dec-11 03:16 351 4 gusting 11 6.1
2019-Dec-11 03:00 045 3 gusting 8 6.1
2019-Dec-11 02:45 319 1 gusting 8 6.7
2019-Dec-11 02:30 022 1 gusting 6 6.7
2019-Dec-11 02:15 292 1 gusting 6 6.7
2019-Dec-11 02:00 355 1 gusting 7 7.2
2019-Dec-11 01:45 322 2 gusting 7 7.2
2019-Dec-11 01:35 052 3 gusting 12 7.8
2019-Dec-11 01:19 318 1 gusting 6 8.3
2019-Dec-11 01:02 033 2 gusting 8 8.9
2019-Dec-11 00:47 041 2 gusting 8 9.4
2019-Dec-11 00:33 336 2 gusting 8 10.0
2019-Dec-11 00:16 341 0 gusting 5 10.6
2019-Dec-11 00:01 336 10.6
2019-Dec-10 23:47 338 0 gusting 5 10.6
2019-Dec-10 23:31 032 0 gusting 3 11.1
2019-Dec-10 23:16 005 1 gusting 4 11.1
2019-Dec-10 23:01 309 3 gusting 11 11.7
2019-Dec-10 22:46 011 12.2
2019-Dec-10 22:31 021 2 gusting 5 12.8
2019-Dec-10 22:15 306 0 gusting 4 12.8
2019-Dec-10 22:01 307 12.8
2019-Dec-10 21:46 307 0 gusting 2 13.3
2019-Dec-10 21:30 307 0 gusting 3 13.3
2019-Dec-10 21:16 307 0 gusting 5 13.9
2019-Dec-10 21:00 288 2 gusting 6 13.9
2019-Dec-10 20:45 294 0 gusting 8 14.4
2019-Dec-10 20:30 287 1 gusting 7 14.4
2019-Dec-10 20:16 285 2 gusting 7 14.4
2019-Dec-10 20:00 255 1 gusting 6 14.4
2019-Dec-10 19:45 244 4 gusting 9 15.0
2019-Dec-10 19:30 254 2 gusting 6 15.0
2019-Dec-10 19:15 268 1 gusting 6 15.0
2019-Dec-10 19:00 228 3 gusting 7 14.4
2019-Dec-10 18:45 194 0 gusting 10 14.4
2019-Dec-10 18:30 215 3 gusting 12 14.4
2019-Dec-10 18:15 198 4 gusting 14 14.4
2019-Dec-10 18:00 229 3 gusting 13 14.4